{"data":{"norad_id":81640,"epoch":"2026-05-24T01:06:06.733728Z","epoch_age_seconds":157616,"freshness":"FRESH","line1":"1 81640U          26144.04591127  .00000146  00000+0  18419-3 0  9991","line2":"2 81640  65.8210 160.0854 0983697  11.4389 350.7299 12.57330819530489","mean_motion":12.57330819,"eccentricity":0.0983697,"inclination_deg":65.821,"raan_deg":160.0854,"arg_perigee_deg":11.4389,"mean_anomaly_deg":350.7299,"bstar":0.00018419,"rev_number":53048,"period_min":114.52833082906,"perigee_km":665.505396082,"apogee_km":2202.4568259749,"semimajor_km":7812.1181110284,"source":"CELESTRAK","updated_at":"2026-05-25T13:38:11.080336Z"}}